Weather Roundup
Issued by NWS

Home | Current Version | Previous Version | Text Only | Print | Product List | Glossary On
Versions: 1 2 3 4 5 6 7 8 9 10 11 12 13 14 15 16 17 18 19 20 21 22 23 24 25 26 27 28 29 30 31 32 33 34 35 36 37 38 39 40 41 42 43 44 45 46 47 48 49 50
000
NZUS93 KARX 131759
HRRWXR

CURRENT HOURLY OBSERVATIONS ACROSS
MUCH OF THE UPPER MISSISSIPPI VALLEY
NATIONAL WEATHER SERVICE LA CROSSE WI
1200 PM CST WED DEC 13 2017


...SOUTHEAST MINNESOTA...


CITY           SKY/WX    TMP DP  RH WIND       PRES   REMARKS
ROCHESTER      CLOUDY    26  23  88 NW28G37   29.47R WCI  10
ROCHESTER/MAYO CLOUDY    27  22  84 NW23G35   29.47R WCI  12
WINONA         CLOUDY    30  25  80 NW24      29.45R WCI  16
AUSTIN         CLOUDY    30  27  86 NW21G35   29.49R WCI  17
ALBERT LEA     NOT AVBL
DODGE CENTER   CLOUDY    27  23  86 NW22G30   29.50R WCI  12
PRESTON        CLOUDY    27  22  82 N26G37    29.45R WCI  11
OWATONNA       CLOUDY    30  27  86 NW25G37   29.54R WCI  16
FARIBAULT      CLOUDY    28  25  86 NW21G31   29.56R WCI  15
$$

...ELSEWHERE IN MINNESOTA...


CITY           SKY/WX    TMP DP  RH WIND       PRES   REMARKS
MINNEAPOLIS    CLOUDY    25  19  78 N21G33    29.57R WCI  11
INTNL FALLS    LGT SNOW  17  10  74 NE8       29.71R VSB 1   WCI   7
DULUTH         LGT SNOW  21  18  88 NE14G26   29.56R FOG     WCI   8
RED WING       CLOUDY    25  18  74 NW14G25   29.52R WCI  13
REDWOOD FALLS  CLOUDY    32  23  69 NW22G31   29.68R WCI  19
MANKATO        CLOUDY    31  26  82 NW30G36   29.58R WCI  16
WORTHINGTON    CLOUDY    32  29  88 NW32      29.71R WCI  17
FAIRMONT       CLOUDY    32  26  78 NW30G41   29.62R WCI  18
$$

...SOUTHWEST WISCONSIN...


CITY           SKY/WX    TMP DP  RH WIND       PRES   REMARKS
LA CROSSE      CLOUDY    29  21  72 NW16      29.41R WCI  17
PRAIRIE DU CHI MOSUNNY   37  25  61 NW21G28   29.36R WCI  26
BOSCOBEL       MOSUNNY   35  24  64 N13G23    29.35R WCI  26
LONE ROCK      NOT AVBL
PLATTEVILLE    CLOUDY    37  28  72 NW14      29.30S WCI  28
FORT MC COY    CLOUDY    26  19  73 N6        29.38S WCI  20
CAMP DOUGLAS   CLOUDY    25  18  74 N7        29.35F WCI  17
MAUSTON-NEW LI CLOUDY    25  19  78 N6        29.34F WCI  18
VIROQUA        CLOUDY    29  24  84 NW14G21   29.34R WCI  18
WIS DELLS      CLOUDY    29  20  68 N6        29.32R WCI  23
$$

...ELSEWHERE IN WISCONSIN...


CITY           SKY/WX    TMP DP  RH WIND       PRES   REMARKS
MILWAUKEE      CLOUDY    33  21  61 S9        29.31F WCI  25
MADISON        CLOUDY    31  22  69 NW7       29.30S WCI  24
GREEN BAY      SNOW      28  25  88 E14       29.36F VSB 1/2 WCI  17
EAU CLAIRE     CLOUDY    22  16  78 N8        29.46R WCI  12
BLACK RVR FLS  LGT SNOW  24  16  70 N8        29.40R WCI  16
MEDFORD        LGT SNOW  15  11  84 NE10      29.39S VSB 3/4 WCI   3
WAUSAU         LGT SNOW  18  14  84 NE6       29.37F VSB 1   WCI  10
WIS RAPIDS     CLOUDY    21  17  84 NE9       29.38F WCI  11
MARSHFIELD     LGT SNOW  19  15  84 NE8       29.37R VSB 3/4 WCI   9
RICE LAKE      CLOUDY    21  15  79 N7        29.51R WCI  12
$$

...NORTHEAST IOWA...


CITY           SKY/WX    TMP DP  RH WIND       PRES   REMARKS
WATERLOO       CLOUDY    37  29  72 NW28G40   29.47R WCI  25
DUBUQUE        CLOUDY    37  29  72 NW22G30   29.32R WCI  26
DECORAH        CLOUDY    32  27  80 NW18G29   29.40R WCI  20
MASON CITY     CLOUDY    32  27  81 NW36G46   29.55R WCI  16
CHARLES CITY   CLOUDY    36  30  80 NW32G46   29.48R WCI  22
OELWEIN        CLOUDY    34  30  86 NW26G44   29.44R WCI  21
$$

...ELSEWHERE IN IOWA...


CITY           SKY/WX    TMP DP  RH WIND       PRES   REMARKS
DES MOINES     CLOUDY    43  34  70 NW25G47   29.61R
IOWA CITY      CLOUDY    40  34  79 W24G43    29.46R WCI  29
FORT DODGE     CLOUDY    35  29  78 NW15G35   29.64R WCI  25
MARSHALLTOWN   CLOUDY    36  32  85 NW33G48   29.54R WCI  22
CEDAR RAPIDS   CLOUDY    38  33  82 NW31G46   29.43R WCI  25
$$

...NORTHERN ILLINOIS...


CITY           SKY/WX    TMP DP  RH WIND       PRES   REMARKS
CHICAGO-OHARE  CLOUDY    35  22  58 SW16      29.31F WCI  25
CHICAGO-MIDWAY CLOUDY    37  22  54 SW16G24   29.34F WCI  28
MOLINE         CLOUDY    47  31  53 W24G41    29.36S
ROCKFORD       CLOUDY    35  25  66 SW13G20   29.30F WCI  26
PEORIA         CLOUDY    44  27  51 W14G21    29.41F
$$

NOTE: "FAIR" INDICATES FEW OR NO CLOUDS BELOW 12,000 FEET WITH NO
SIGNIFICANT WEATHER AND/OR OBSTRUCTIONS TO VISIBILITY. WIND
SPEEDS ARE IN MILES-PER-HOUR.




USA.gov is the U.S. government's official web portal to all federal, state and local government web resources and services.